Tracking 28790 objects as of 19-Apr-2024
HD Live streaming from Space Station
objects crossing your sky now

STARLINK-5050

Track STARLINK-5050 now!
10-day predictions
STARLINK-5050 is classified as:


NORAD ID: 53890
Int'l Code: 2022-119E
Perigee: 545.8 km
Apogee: 548.0 km
Inclination: 53.2 °
Period: 95.4 minutes
Semi major axis: 6917 km
RCS: Unknown
Launch date: September 24, 2022
Source: United States (US)
Launch site: AIR FORCE EASTERN TEST RANGE (AFETR)
Your satellite tracking list
Your tracking list is empty




NASA's NSSDC Master Catalog

Two Line Element Set (TLE):
1 53890U 22119E   24109.37076452  .00000198  00000-0  30512-4 0  9993
2 53890  53.2154 147.8638 0001632  89.4579 270.6600 15.08831784 87964
Source of the keplerian elements: AFSPC